Wind_Speed
15 15 15 15 16 14 10 9 8 7 6 6 6 6 5 6 5 5 5 5 4 4 4 4 4 4 4 4 3 3 5 6 6 5 5 6 6 6 7 8 8 8 8 7 7 7 6 6 4
15 14 15 17 16 11 9 8 8 8 8 8 7 7 7 7 6 5 5 5 5 4 4 4 4 4 4 4 4 4 4 5 5 4 4 6 6 6 8 8 8 8 8 8 7 6 6 6 5
15 14 17 17 12 9 9 9 9 9 9 9 8 8 8 7 6 5 5 4 5 4 4 4 4 4 4 3 3 4 5 4 4 4 4 5 7 7 7 8 8 8 9 8 8 7 7 6 5
14 16 19 16 11 11 10 9 9 9 9 9 9 8 8 8 7 5 5 4 4 4 4 4 4 3 4 4 4 4 5 4 4 4 4 5 6 6 7 7 7 7 8 8 8 7 7 6 5
15 17 17 12 10 10 11 10 10 9 10 10 10 9 9 9 8 7 6 4 3 4 3 3 4 3 3 4 4 4 4 4 4 4 4 4 5 6 7 8 7 8 8 8 8 7 7 6 6
15 18 14 12 10 10 10 9 9 9 10 11 10 10 10 10 9 7 6 4 3 3 2 2 1 1 2 3 3 3 3 3 3 3 4 4 4 5 7 7 8 8 8 9 8 8 7 7 6
16 15 10 9 9 10 11 10 10 9 10 11 12 11 11 11 10 8 7 6 4 3 1 1 0 1 1 1 2 2 3 3 3 3 4 4 3 5 6 7 7 7 8 9 8 8 7 6 6
14 12 9 8 9 10 10 11 11 11 11 11 12 12 12 11 10 9 8 7 5 4 3 2 1 1 2 2 2 2 2 3 2 3 4 4 4 5 5 7 7 7 7 8 8 7 7 6 6
12 11 10 9 10 11 11 11 11 12 12 12 12 12 13 12 11 10 9 8 6 5 4 3 2 1 2 2 3 3 3 3 3 3 3 4 4 5 6 7 7 8 7 7 7 7 6 6 6
9 9 8 8 9 10 11 11 11 12 12 12 13 14 14 13 13 12 10 9 7 5 5 4 3 2 2 3 3 3 3 2 3 3 3 3 4 5 6 7 6 7 8 8 7 7 7 6 6
5 6 7 7 8 9 10 11 11 10 11 13 14 14 15 14 13 12 11 9 8 6 6 5 4 3 3 3 3 2 2 2 2 2 2 3 3 5 5 6 6 7 8 8 8 7 7 6 6
4 4 5 6 8 9 10 11 11 12 12 13 14 14 15 15 14 13 11 10 8 7 7 6 6 4 4 3 2 2 2 1 1 1 1 2 2 4 4 4 5 7 8 8 8 7 7 7 7
4 4 5 6 8 9 10 11 11 12 13 14 14 15 15 15 15 14 12 11 9 8 8 8 8 6 5 4 3 2 2 1 1 1 1 1 2 3 2 2 4 6 7 7 8 7 7 7 6
3 3 4 5 7 10 10 10 12 12 13 14 15 16 16 16 15 15 14 13 11 10 9 9 8 7 6 5 4 2 1 1 1 0 1 1 2 2 2 3 3 4 5 6 6 6 7 7 6
2 1 3 5 6 8 9 9 10 11 13 14 14 15 16 16 15 15 14 14 13 11 11 10 9 7 7 6 6 3 1 1 1 0 0 1 1 2 3 3 3 3 4 4 4 4 5 5 5
0 0 3 5 7 9 10 10 11 12 13 14 14 14 15 15 15 14 14 14 13 12 11 10 10 8 6 6 6 5 3 2 1 1 0 0 1 2 2 3 3 3 4 4 4 4 5 5 5
1 1 2 6 7 8 9 9 10 12 13 13 14 14 14 14 14 14 14 14 14 13 11 10 8 7 6 6 5 5 4 3 2 1 0 1 1 1 1 2 3 4 4 4 4 4 5 5 6
1 2 3 6 7 8 9 8 8 10 13 13 13 14 14 13 14 14 14 14 14 13 12 10 8 7 7 6 5 5 5 4 3 2 2 1 2 1 1 1 3 3 3 4 4 4 5 6 6
4 5 6 7 9 9 9 9 8 10 13 14 14 14 13 13 13 13 14 13 13 13 13 12 9 7 6 6 6 5 5 5 4 3 2 2 1 2 2 2 3 3 3 4 4 5 6 6 6
8 8 8 7 8 9 9 10 9 10 12 13 14 15 14 14 13 13 13 13 13 13 13 12 11 9 7 6 6 5 5 5 6 4 3 2 2 2 3 3 3 3 4 4 5 6 6 6 6
9 9 9 10 9 9 11 12 10 12 12 12 13 14 13 14 13 13 13 13 13 13 13 12 11 9 7 6 5 5 5 5 5 5 4 3 3 3 3 4 4 4 4 5 5 6 6 6 7
10 10 10 11 11 10 11 13 11 10 12 12 13 13 13 13 12 13 13 13 13 13 12 11 10 9 8 7 6 5 5 5 5 5 5 4 4 3 4 4 4 5 5 5 5 6 7 7 7
11 10 11 11 12 11 13 13 12 12 14 13 13 13 13 13 13 12 13 13 13 13 12 11 11 9 8 8 7 6 7 7 6 6 6 5 5 5 5 5 5 6 6 6 5 6 7 7 8
12 10 11 12 11 11 12 13 13 13 12 14 14 13 14 13 13 12 13 13 13 13 12 11 11 9 9 8 8 8 8 8 7 6 6 6 6 6 6 6 6 6 6 6 7 7 8 8 9
12 12 13 13 13 10 13 15 14 13 13 15 16 14 13 13 13 13 13 13 12 13 13 12 11 10 10 9 8 8 8 7 7 7 7 8 7 7 7 7 7 7 8 8 8 8 9 9 10
12 13 14 13 11 10 12 15 15 14 14 15 16 16 14 13 13 14 14 13 13 13 13 12 12 11 10 9 9 9 8 8 8 8 8 8 8 8 8 8 8 8 8 9 9 9 10 11 11
14 13 13 15 15 14 13 14 16 15 16 17 17 16 16 16 14 14 14 14 13 13 13 13 12 12 12 10 9 9 9 8 8 8 9 9 9 9 10 10 10 10 10 10 11 11 11 12 12
15 14 14 14 15 15 14 14 14 16 17 19 19 18 17 18 16 15 15 15 15 15 14 13 13 12 12 11 10 10 10 10 10 11 11 11 11 11 11 11 12 12 12 12 13 13 13 13 13
16 16 16 16 16 15 16 15 15 16 17 19 19 19 19 19 18 16 17 17 16 15 15 14 14 13 12 12 12 12 11 11 12 13 14 14 13 14 14 14 14 14 14 14 15 15 15 15 15
17 17 16 17 18 17 18 20 17 17 17 19 20 20 20 19 20 19 19 19 18 16 16 17 16 14 13 14 14 13 13 14 14 14 15 15 15 16 16 16 16 16 16 17 17 17 18 18 18
Wind_Direction
83 81 75 68 58 51 36 27 21 17 13 8 2 355 357 358 345 338 333 322 310 298 280 265 255 252 246 244 247 240 225 219 214 217 219 213 216 210 202 200 198 198 189 182 179 185 178 183 174
83 81 75 64 59 49 32 26 19 19 13 9 3 0 0 4 356 348 336 323 307 298 280 264 250 242 237 233 244 243 221 213 213 221 224 215 213 213 203 199 199 197 193 188 183 179 179 180 163
83 77 71 60 51 41 36 29 21 23 14 10 5 5 5 7 4 351 340 325 310 297 278 268 253 244 237 233 239 239 228 219 219 227 218 210 214 211 203 206 204 201 199 195 190 188 183 178 175
83 73 68 61 42 33 33 28 22 19 14 11 9 9 11 8 2 350 341 336 318 302 285 272 266 250 234 232 232 232 229 226 231 235 219 207 213 213 208 205 208 207 204 201 198 200 191 186 180
85 71 65 57 41 26 21 23 17 16 15 10 8 9 12 10 3 353 345 341 323 308 293 268 264 255 238 238 236 231 237 240 246 240 233 217 211 209 206 204 204 204 206 206 206 206 198 196 191
78 65 60 46 38 24 19 17 11 9 10 9 11 13 11 8 5 1 354 348 338 323 313 277 243 265 248 245 240 245 249 246 239 236 233 216 206 203 203 204 201 201 201 200 204 206 204 205 200
76 75 64 39 35 20 18 18 13 9 7 8 12 12 9 8 7 6 8 12 10 354 5 17 256 290 280 285 268 269 255 249 239 238 230 220 207 194 194 193 198 202 201 201 201 205 202 209 211
75 72 64 38 32 23 17 16 14 16 11 9 11 12 11 11 10 9 16 22 25 27 42 39 27 316 301 304 296 291 283 263 242 239 235 232 223 200 200 195 196 200 203 204 203 203 206 212 215
73 67 51 32 24 24 18 13 15 16 14 12 14 14 10 13 11 13 20 24 28 33 27 23 12 346 322 312 307 289 289 280 261 249 248 237 222 204 204 203 205 203 202 200 203 202 205 213 221
55 55 42 31 19 21 21 15 18 17 15 15 16 18 17 16 15 15 18 22 26 27 20 13 16 7 347 324 314 295 295 288 280 252 242 235 219 206 204 212 215 210 212 212 210 207 213 218 225
55 43 36 26 17 18 21 18 17 14 14 19 21 20 21 18 17 17 16 18 21 26 19 11 10 11 348 325 318 311 326 317 282 261 233 214 228 210 202 211 214 213 216 219 217 215 217 218 226
60 43 31 15 13 15 14 17 14 8 13 19 21 17 16 16 15 16 16 16 20 20 18 15 15 13 2 344 329 326 335 350 296 266 275 250 247 209 200 204 212 209 214 218 219 218 221 220 226
64 37 24 10 11 11 10 12 9 4 12 17 18 13 13 16 17 18 18 16 14 13 15 20 16 15 11 358 328 329 319 313 347 291 295 293 236 219 196 216 220 211 210 210 212 216 223 226 229
99 39 3 3 8 7 6 7 360 1 4 9 12 12 12 12 15 18 17 15 13 15 15 18 16 14 10 5 357 340 328 340 16 330 315 311 236 211 214 210 210 207 201 199 205 216 227 229 232
109 16 350 341 352 357 357 359 354 357 358 359 3 8 10 9 11 14 14 14 14 13 13 15 13 11 12 12 22 24 21 5 337 305 306 320 191 191 203 211 208 207 205 203 211 221 229 241 241
177 66 336 328 332 344 346 346 348 352 352 353 355 0 5 4 9 10 13 13 14 13 11 12 14 19 21 20 27 40 52 28 46 74 141 304 192 202 205 214 210 206 213 221 227 230 240 246 251
218 275 342 318 319 326 328 328 339 346 347 348 350 353 358 359 3 7 9 11 13 12 10 11 16 16 18 21 30 35 46 55 52 38 316 291 305 249 224 231 232 223 221 228 231 236 245 250 255
302 316 301 292 300 302 306 312 329 338 338 343 345 348 352 355 356 1 4 6 9 10 11 11 13 13 15 20 23 31 38 42 41 38 43 22 0 347 288 261 237 238 238 238 239 238 244 254 258
251 253 258 278 290 294 303 305 316 329 334 338 340 345 348 352 353 357 1 3 5 8 11 12 10 7 5 9 15 24 25 26 29 35 48 48 34 10 350 303 272 270 254 250 250 249 250 255 256
248 246 248 256 272 283 292 301 308 315 324 328 331 336 340 344 350 351 354 358 1 2 6 7 10 9 4 2 4 9 11 15 14 10 5 12 357 337 328 306 287 273 261 263 259 254 254 258 262
252 252 252 261 265 277 283 290 299 304 311 318 323 328 334 338 343 346 349 352 355 356 360 2 3 6 6 4 5 0 1 5 2 1 359 344 339 333 326 314 311 287 278 273 261 256 258 263 266
247 250 255 261 265 263 276 283 290 301 307 314 318 322 327 332 338 340 343 346 348 349 352 357 357 356 359 356 351 350 346 343 342 342 341 332 334 334 322 308 309 302 293 280 269 270 272 273 272
247 250 255 262 266 265 268 273 290 301 305 310 315 318 319 325 332 336 339 340 342 343 343 346 349 348 345 346 341 334 334 330 326 325 323 327 334 334 331 319 317 313 305 295 288 286 284 282 280
250 250 256 260 261 266 277 278 281 290 300 303 303 305 310 318 324 330 333 335 337 338 336 336 340 339 338 335 331 326 323 322 320 319 323 323 326 327 328 324 318 319 311 302 299 295 292 291 288
256 261 260 261 261 267 275 272 274 279 286 296 298 300 307 310 315 318 324 327 328 331 330 327 329 330 327 323 320 318 316 317 315 311 315 322 319 312 313 313 310 307 305 304 302 301 300 298 299
255 258 264 269 268 265 271 275 282 285 288 289 293 296 299 303 307 311 314 317 320 324 325 320 320 321 319 317 315 314 310 309 309 307 304 310 316 315 309 306 304 303 305 308 309 304 299 296 297
249 249 260 268 272 265 262 271 281 283 286 287 287 293 299 301 299 305 309 311 311 316 318 313 311 313 312 307 305 305 307 304 304 303 300 298 299 302 304 305 306 305 304 302 299 298 296 293 292
253 247 246 250 265 270 266 267 270 283 283 285 287 289 291 294 297 299 303 308 309 309 309 308 306 305 305 302 297 297 297 295 294 296 298 295 294 295 297 298 300 303 306 306 302 300 298 297 295
256 252 249 253 258 265 274 266 270 277 279 281 287 290 290 290 292 293 296 300 303 303 304 302 302 299 299 296 293 293 291 292 292 294 295 293 291 292 293 294 296 299 299 300 300 299 299 300 300
257 252 250 258 263 262 269 275 273 276 276 278 282 285 286 286 288 289 289 294 295 295 299 300 296 294 293 293 293 291 289 288 288 289 290 289 287 288 290 290 292 293 294 295 297 297 299 300 300
Height
5896 5895 5895 5895 5894 5895 5895 5894 5893 5891 5890 5889 5888 5886 5885 5885 5885 5886 5882 5880 5880 5879 5878 5878 5878 5878 5879 5879 5880 5880 5879 5879 5880 5881 5881 5881 5882 5882 5883 5884 5885 5886 5887 5889 5891 5892 5893 5895 5896
5898 5898 5897 5896 5897 5898 5898 5896 5894 5893 5891 5890 5889 5887 5886 5885 5884 5883 5882 5881 5880 5879 5879 5878 5877 5878 5878 5879 5879 5880 5880 5879 5880 5880 5881 5881 5881 5882 5882 5883 5884 5885 5887 5889 5891 5892 5894 5895 5896
5900 5899 5898 5899 5901 5900 5899 5898 5896 5894 5893 5891 5890 5889 5887 5886 5885 5883 5882 5881 5880 5880 5879 5878 5877 5878 5878 5879 5879 5880 5880 5880 5880 5880 5880 5880 5880 5881 5882 5883 5884 5885 5886 5888 5890 5892 5894 5895 5897
5902 5900 5899 5903 5904 5902 5901 5899 5897 5896 5894 5892 5891 5890 5888 5886 5885 5884 5882 5881 5880 5879 5879 5878 5877 5877 5878 5879 5879 5880 5880 5880 5880 5880 5879 5879 5880 5880 5881 5882 5884 5885 5886 5888 5890 5892 5893 5895 5896
5903 5900 5904 5906 5906 5904 5902 5901 5899 5897 5896 5894 5892 5890 5889 5887 5886 5884 5882 5881 5880 5879 5879 5878 5877 5878 5878 5879 5879 5879 5880 5880 5880 5880 5879 5879 5880 5880 5881 5882 5883 5885 5886 5888 5890 5892 5893 5895 5896
5902 5903 5908 5908 5907 5906 5904 5902 5900 5899 5897 5895 5893 5891 5889 5888 5886 5884 5882 5881 5880 5879 5879 5878 5878 5878 5879 5879 5879 5879 5879 5879 5880 5880 5879 5879 5880 5880 5880 5881 5883 5885 5886 5888 5890 5892 5894 5895 5897
5905 5907 5910 5911 5909 5908 5906 5904 5902 5900 5898 5897 5894 5892 5890 5888 5886 5884 5883 5882 5881 5880 5879 5878 5879 5879 5879 5879 5880 5879 5879 5879 5879 5879 5879 5879 5879 5879 5880 5881 5883 5885 5887 5888 5890 5892 5894 5895 5897
5909 5911 5912 5912 5911 5909 5907 5905 5903 5901 5900 5898 5896 5894 5891 5890 5887 5885 5883 5882 5881 5880 5879 5879 5880 5879 5879 5879 5879 5879 5879 5879 5878 5878 5879 5879 5879 5879 5880 5881 5883 5885 5886 5888 5890 5892 5894 5896 5897
5911 5914 5914 5914 5913 5911 5909 5907 5905 5903 5901 5899 5897 5895 5893 5891 5889 5886 5885 5884 5883 5882 5881 5880 5880 5880 5880 5880 5879 5879 5879 5878 5878 5878 5878 5879 5879 5880 5880 5881 5883 5884 5886 5888 5890 5892 5894 5896 5897
5914 5916 5916 5916 5915 5913 5911 5909 5906 5904 5902 5901 5898 5896 5894 5892 5890 5888 5886 5885 5884 5883 5882 5881 5880 5880 5880 5879 5879 5879 5879 5878 5878 5878 5878 5878 5878 5879 5880 5881 5883 5884 5886 5888 5890 5892 5894 5895 5897
5918 5919 5918 5918 5916 5914 5912 5911 5908 5907 5904 5902 5900 5898 5896 5894 5891 5889 5888 5886 5885 5884 5883 5882 5881 5880 5880 5879 5879 5879 5878 5878 5878 5877 5877 5878 5878 5879 5880 5881 5882 5884 5886 5888 5890 5892 5893 5895 5896
5920 5920 5920 5919 5917 5916 5914 5912 5910 5908 5906 5904 5902 5900 5897 5895 5893 5891 5889 5887 5886 5885 5884 5883 5882 5881 5880 5879 5878 5878 5878 5878 5877 5877 5877 5878 5878 5879 5880 5881 5882 5883 5885 5887 5890 5892 5893 5895 5896
5921 5921 5921 5920 5918 5917 5915 5914 5912 5910 5908 5906 5904 5901 5899 5897 5894 5892 5890 5889 5887 5886 5884 5883 5882 5881 5880 5878 5878 5878 5878 5878 5878 5878 5878 5878 5878 5879 5880 5881 5882 5883 5885 5887 5889 5892 5893 5895 5896
5921 5921 5921 5920 5919 5918 5917 5915 5913 5911 5909 5907 5905 5903 5901 5898 5896 5894 5892 5890 5888 5887 5885 5884 5883 5881 5880 5878 5877 5877 5878 5878 5878 5878 5878 5879 5879 5880 5881 5882 5883 5884 5885 5887 5890 5892 5893 5894 5895
5920 5921 5922 5921 5920 5919 5918 5916 5914 5912 5911 5909 5907 5905 5902 5900 5897 5896 5894 5892 5890 5888 5887 5885 5884 5882 5880 5879 5878 5878 5878 5879 5879 5879 5879 5879 5879 5880 5881 5882 5883 5885 5886 5888 5890 5891 5893 5894 5894
5919 5921 5922 5922 5921 5920 5920 5918 5915 5913 5912 5910 5908 5906 5904 5901 5899 5897 5895 5893 5891 5890 5888 5887 5885 5883 5882 5881 5880 5879 5879 5880 5879 5879 5879 5880 5881 5881 5882 5883 5884 5885 5887 5888 5890 5891 5892 5893 5894
5919 5921 5923 5923 5922 5921 5921 5918 5916 5914 5912 5910 5908 5906 5905 5903 5901 5899 5897 5895 5893 5891 5889 5888 5886 5885 5884 5883 5882 5881 5881 5881 5881 5881 5881 5881 5882 5882 5883 5884 5885 5886 5887 5888 5889 5890 5892 5893 5893
5920 5922 5924 5924 5922 5921 5921 5919 5916 5915 5913 5911 5909 5907 5905 5903 5902 5900 5898 5896 5894 5892 5890 5889 5887 5886 5885 5884 5883 5883 5882 5882 5882 5882 5881 5882 5883 5883 5884 5884 5885 5886 5887 5888 5889 5890 5891 5892 5892
5921 5923 5923 5923 5922 5921 5920 5918 5917 5915 5914 5911 5909 5907 5905 5903 5902 5901 5899 5897 5895 5894 5892 5890 5888 5887 5886 5885 5885 5884 5884 5884 5883 5883 5883 5883 5884 5884 5884 5885 5886 5886 5886 5887 5888 5889 5890 5890 5891
5920 5921 5921 5922 5921 5920 5919 5917 5917 5915 5914 5912 5910 5908 5906 5904 5903 5901 5900 5898 5896 5894 5893 5891 5889 5887 5886 5886 5886 5885 5885 5885 5884 5884 5884 5884 5884 5885 5885 5885 5885 5886 5886 5887 5887 5888 5889 5889 5890
5918 5919 5920 5920 5919 5918 5918 5916 5915 5914 5912 5911 5910 5908 5906 5905 5903 5901 5900 5898 5896 5895 5893 5892 5890 5888 5887 5887 5886 5886 5886 5886 5885 5885 5885 5885 5885 5885 5885 5885 5886 5886 5886 5886 5887 5887 5888 5888 5888
5916 5917 5918 5917 5917 5917 5917 5915 5914 5912 5911 5910 5909 5908 5906 5904 5903 5901 5900 5898 5897 5895 5893 5892 5890 5889 5888 5887 5887 5887 5887 5887 5886 5886 5886 5885 5885 5885 5885 5885 5885 5885 5885 5886 5886 5886 5887 5887 5887
5913 5914 5915 5914 5913 5914 5914 5912 5912 5911 5911 5909 5907 5906 5906 5904 5902 5901 5900 5898 5897 5895 5894 5892 5891 5889 5888 5888 5887 5887 5887 5887 5887 5886 5886 5886 5886 5886 5886 5885 5885 5885 5885 5885 5885 5886 5886 5886 5886
5911 5912 5912 5912 5912 5912 5912 5911 5910 5910 5909 5908 5906 5906 5905 5903 5902 5900 5899 5898 5896 5895 5893 5892 5891 5889 5888 5888 5887 5887 5887 5886 5886 5886 5886 5885 5885 5885 5885 5885 5885 5885 5884 5885 5885 5885 5885 5885 5884
5909 5909 5910 5909 5909 5910 5911 5909 5908 5908 5908 5906 5905 5903 5902 5901 5900 5899 5898 5897 5895 5894 5892 5891 5890 5889 5888 5887 5887 5886 5886 5886 5885 5885 5885 5885 5885 5885 5885 5885 5884 5884 5884 5884 5883 5883 5883 5883 5883
5906 5907 5908 5908 5907 5908 5908 5907 5907 5906 5905 5905 5903 5901 5900 5900 5899 5898 5897 5895 5894 5892 5891 5889 5888 5888 5887 5886 5886 5885 5885 5885 5884 5884 5884 5884 5884 5884 5884 5884 5883 5883 5882 5882 5882 5881 5881 5881 5881
5903 5904 5906 5906 5904 5905 5905 5905 5904 5903 5903 5902 5901 5900 5899 5897 5896 5896 5894 5893 5891 5890 5889 5888 5887 5886 5885 5884 5884 5884 5884 5883 5883 5883 5883 5883 5883 5882 5882 5882 5882 5881 5881 5880 5880 5879 5879 5878 5878
5900 5901 5902 5902 5902 5901 5901 5900 5900 5900 5900 5899 5898 5898 5897 5894 5892 5892 5891 5890 5889 5888 5886 5885 5884 5884 5883 5882 5882 5882 5882 5882 5882 5881 5882 5881 5881 5880 5880 5880 5879 5879 5878 5878 5877 5877 5876 5875 5874
5896 5897 5897 5898 5898 5898 5898 5899 5897 5897 5897 5896 5894 5894 5893 5891 5890 5889 5888 5887 5886 5885 5883 5882 5881 5881 5880 5880 5880 5880 5880 5879 5879 5879 5879 5879 5878 5878 5878 5877 5877 5876 5876 5875 5874 5873 5873 5872 5871
5891 5893 5894 5895 5894 5895 5895 5895 5892 5893 5892 5892 5891 5890 5889 5888 5887 5885 5884 5883 5882 5881 5880 5879 5878 5877 5877 5877 5877 5877 5877 5877 5877 5876 5876 5875 5875 5875 5874 5874 5873 5873 5872 5872 5871 5870 5869 5868 5867